Location: Kimberly
(42.5380°N, 114.3640°W)
Time: 21:39:51
(UTC-07:00)

ISS - Visible Passes

Search period start: 14 November 2018 00:00
Search period end: 24 November 2018 00:00
Orbit: 402 x 408 km, 51.6° (Epoch: 15 November)

Date Brightness Start Highest point End Pass type
(mag) Time Alt. Az. Time Alt. Az. Time Alt. Az.
14 Nov -2.9 05:28:34 45° SSE 05:28:34 45° SSE 05:30:58 10° SE visible
15 Nov -1.9 06:11:43 16° SW 06:11:48 16° SW 06:13:55 10° S visible
16 Nov -1.2 05:22:13 13° SSE 05:22:13 13° SSE 05:22:46 10° SSE visible
22 Nov -1.4 18:23:16 10° SE 18:23:54 11° SE 18:23:54 11° SE visible
23 Nov -2.5 19:04:44 10° SW 19:06:52 33° S 19:06:52 33° S visible
